| time (UTC) | temp C | wind direction | speed KPH | gust KPH | rain 1hr cm | rain 24hr cm | rain mn cm | humidity % | barometer mb |
| 20260502163013 | 25 | 97 | 1.6 | 6.4 | 0.00 | 0.00 | 0.00 | 47 | 1026.0 |
| 20260502162012 | 24 | 157 | 3.2 | 4.8 | 0.00 | 0.00 | 0.00 | 46 | 1026.0 |
| 20260502161110 | 25 | 173 | 4.8 | 6.4 | 0.00 | 0.00 | 0.00 | 44 | 1026.1 |
| 20260502160112 | 25 | 157 | 4.8 | 6.4 | 0.00 | 0.00 | 0.00 | 45 | 1026.3 |
| 20260502152210 | 25 | 176 | 4.8 | 8.0 | 0.00 | 0.00 | 0.00 | 45 | 1026.5 |
| 20260502150212 | 25 | 180 | 6.4 | 11.3 | 0.00 | 0.00 | 0.00 | 45 | 1027.0 |
| 20260502150112 | 25 | 176 | 3.2 | 6.4 | 0.00 | 0.00 | 0.00 | 45 | 1026.9 |
| 20260502140111 | 26 | 204 | 6.4 | 9.7 | 0.00 | 0.00 | 0.00 | 44 | 1027.7 |
| 20260502123113 | 26 | 202 | 4.8 | 8.0 | 0.00 | 0.00 | 0.00 | 43 | 1028.6 |
| 20260502122113 | 26 | 170 | 6.4 | 11.3 | 0.00 | 0.00 | 0.00 | 43 | 1028.7 |
| 20260502121210 | 27 | 161 | 6.4 | 11.3 | 0.00 | 0.00 | 0.00 | 43 | 1028.8 |
| 20260502120111 | 26 | 180 | 1.6 | 4.8 | 0.00 | 0.00 | 0.00 | 45 | 1028.8 |
| 20260502115112 | 26 | 170 | 4.8 | 9.7 | 0.00 | 0.00 | 0.00 | 45 | 1028.8 |
| 20260502114111 | 25 | 180 | 1.6 | 4.8 | 0.00 | 0.00 | 0.00 | 45 | 1029.0 |
| 20260502113112 | 25 | 157 | 12.9 | 17.7 | 0.00 | 0.00 | 0.00 | 47 | 1029.1 |
| 20260502113012 | 25 | 161 | 11.3 | 19.3 | 0.00 | 0.00 | 0.00 | 47 | 1029.1 |
| 20260502110110 | 23 | 158 | 4.8 | 12.9 | 0.00 | 0.00 | 0.00 | 49 | 1029.5 |
| 20260502105111 | 22 | 159 | 11.3 | 14.5 | 0.00 | 0.00 | 0.00 | 50 | 1029.8 |
| 20260502104112 | 22 | 174 | 9.7 | 20.9 | 0.00 | 0.00 | 0.00 | 50 | 1029.7 |
| 20260502103111 | 22 | 164 | 1.6 | 6.4 | 0.00 | 0.00 | 0.00 | 50 | 1029.8 |
| 20260502101112 | 22 | 177 | 3.2 | 6.4 | 0.00 | 0.00 | 0.00 | 49 | 1030.1 |
| 20260502070912 | 16 | 157 | 6.4 | 8.0 | 0.00 | 0.00 | 0.00 | 56 | 1030.7 |
| 20260502065913 | 15 | 157 | 6.4 | 9.7 | 0.00 | 0.00 | 0.00 | 59 | 1030.8 |
| 20260502064912 | 14 | 158 | 6.4 | 9.7 | 0.00 | 0.00 | 0.00 | 60 | 1030.8 |
| 20260502063911 | 14 | 157 | 8.0 | 9.7 | 0.00 | 0.00 | 0.00 | 61 | 1030.7 |
| 20260502063812 | 13 | 157 | 8.0 | 11.3 | 0.00 | 0.00 | 0.00 | 61 | 1030.8 |
| 20260502062812 | 13 | 157 | 4.8 | 6.4 | 0.00 | 0.00 | 0.00 | 62 | 1030.7 |
| 20260502061011 | 12 | 157 | 3.2 | 6.4 | 0.00 | 0.00 | 0.00 | 65 | 1030.6 |
| 20260502060013 | 12 | 157 | 8.0 | 12.9 | 0.00 | 0.00 | 0.00 | 65 | 1030.7 |
| 20260502055012 | 11 | 157 | 4.8 | 8.0 | 0.00 | 0.00 | 0.00 | 66 | 1030.7 |
| 20260502054912 | 11 | 157 | 8.0 | 11.3 | 0.00 | 0.00 | 0.00 | 66 | 1030.7 |
| 20260502053912 | 11 | 157 | 6.4 | 11.3 | 0.00 | 0.00 | 0.00 | 67 | 1030.6 |
| 20260502052911 | 11 | 157 | 4.8 | 6.4 | 0.00 | 0.00 | 0.00 | 68 | 1030.5 |
| 20260502051912 | 10 | 157 | 4.8 | 9.7 | 0.00 | 0.00 | 0.00 | 68 | 1030.5 |
| 20260502051011 | 10 | 159 | 4.8 | 8.0 | 0.00 | 0.00 | 0.00 | 68 | 1030.4 |
| 20260502050012 | 10 | 156 | 4.8 | 6.4 | 0.00 | 0.00 | 0.00 | 69 | 1030.4 |
| 20260502045013 | 10 | 157 | 3.2 | 6.4 | 0.00 | 0.00 | 0.00 | 69 | 1030.6 |
| 20260502044112 | 9 | 151 | 4.8 | 6.4 | 0.00 | 0.00 | 0.00 | 69 | 1030.4 |
| 20260502043114 | 9 | 141 | 3.2 | 6.4 | 0.00 | 0.00 | 0.00 | 68 | 1030.5 |
| 20260502043013 | 9 | 153 | 1.6 | 6.4 | 0.00 | 0.00 | 0.00 | 68 | 1030.5 |
| 20260502042012 | 9 | 157 | 3.2 | 4.8 | 0.00 | 0.00 | 0.00 | 68 | 1030.5 |
| 20260502041011 | 9 | 143 | 1.6 | 4.8 | 0.00 | 0.00 | 0.00 | 67 | 1030.6 |
| 20260502035011 | 9 | 157 | 3.2 | 4.8 | 0.00 | 0.00 | 0.00 | 67 | 1030.7 |
| 20260502034912 | 10 | 157 | 1.6 | 3.2 | 0.00 | 0.00 | 0.00 | 67 | 1030.7 |
| 20260502033913 | 10 | 157 | 1.6 | 3.2 | 0.00 | 0.00 | 0.00 | 66 | 1030.6 |
| 20260502032911 | 10 | 135 | 1.6 | 3.2 | 0.00 | 0.00 | 0.00 | 66 | 1030.8 |
| 20260502032813 | 10 | 143 | 3.2 | 6.4 | 0.00 | 0.00 | 0.00 | 66 | 1030.8 |
| 20260502030813 | 10 | 157 | 3.2 | 6.4 | 0.00 | 0.00 | 0.00 | 65 | 1031.2 |
| 20260502025910 | 10 | 157 | 3.2 | 6.4 | 0.00 | 0.00 | 0.00 | 65 | 1031.0 |
| 20260502024911 | 10 | 157 | 3.2 | 4.8 | 0.00 | 0.00 | 0.00 | 65 | 1031.0 |
| 20260502023911 | 10 | 157 | 1.6 | 4.8 | 0.00 | 0.00 | 0.00 | 64 | 1031.3 |
| 20260502023010 | 10 | 157 | 0.0 | 3.2 | 0.00 | 0.00 | 0.00 | 64 | 1031.2 |
| 20260502022012 | 9 | 157 | 0.0 | 3.2 | 0.00 | 0.00 | 0.00 | 64 | 1031.2 |
| 20260502021912 | 9 | 157 | 0.0 | 3.2 | 0.00 | 0.00 | 0.00 | 64 | 1031.3 |
| 20260502015011 | 9 | 157 | 0.0 | 1.6 | 0.00 | 0.00 | 0.00 | 62 | 1031.6 |
| 20260502014011 | 9 | 157 | 0.0 | 0.0 | 0.00 | 0.00 | 0.00 | 62 | 1031.4 |
| 20260502013012 | 9 | 157 | 0.0 | 3.2 | 0.00 | 0.00 | 0.00 | 61 | 1031.5 |
| 20260502012110 | 9 | 157 | 3.2 | 4.8 | 0.00 | 0.00 | 0.00 | 59 | 1031.4 |
| 20260502011111 | 10 | 157 | 1.6 | 3.2 | 0.00 | 0.00 | 0.00 | 59 | 1031.6 |
| 20260502005214 | 10 | 157 | 1.6 | 3.2 | 0.00 | 0.00 | 0.00 | 57 | 1032.0 |
| 20260502004212 | 11 | 157 | 1.6 | 3.2 | 0.00 | 0.00 | 0.00 | 56 | 1032.1 |
| 20260502003310 | 11 | 157 | 3.2 | 4.8 | 0.00 | 0.00 | 0.00 | 56 | 1032.1 |
| 20260502002410 | 11 | 157 | 0.0 | 1.6 | 0.00 | 0.00 | 0.00 | 55 | 1032.2 |
| 20260502002310 | 11 | 157 | 0.0 | 0.0 | 0.00 | 0.00 | 0.00 | 55 | 1032.3 |
| 20260502000313 | 11 | 157 | 1.6 | 3.2 | 0.00 | 0.00 | 0.00 | 54 | 1032.4 |
| 20260501235411 | 11 | 157 | 1.6 | 3.2 | 0.00 | 0.00 | 0.00 | 54 | 1032.5 |
| 20260501235312 | 11 | 157 | 0.0 | 1.6 | 0.00 | 0.00 | 0.00 | 54 | 1032.5 |
| 20260501233310 | 11 | 157 | 1.6 | 3.2 | 0.00 | 0.00 | 0.00 | 53 | 1032.6 |
| 20260501232312 | 11 | 157 | 1.6 | 4.8 | 0.00 | 0.00 | 0.00 | 52 | 1032.7 |
| 20260501230410 | 12 | 157 | 1.6 | 3.2 | 0.00 | 0.00 | 0.00 | 50 | 1032.8 |
| 20260501225412 | 12 | 157 | 0.0 | 3.2 | 0.00 | 0.00 | 0.00 | 49 | 1032.7 |
| 20260501223411 | 12 | 157 | 0.0 | 1.6 | 0.00 | 0.00 | 0.00 | 48 | 1032.8 |
| 20260501222410 | 13 | 157 | 3.2 | 4.8 | 0.00 | 0.00 | 0.00 | 47 | 1032.8 |
| 20260501221413 | 13 | 157 | 1.6 | 4.8 | 0.00 | 0.00 | 0.00 | 46 | 1032.9 |
| 20260501220511 | 13 | 157 | 3.2 | 3.2 | 0.00 | 0.00 | 0.00 | 45 | 1032.9 |
| 20260501215512 | 14 | 157 | 3.2 | 4.8 | 0.00 | 0.00 | 0.00 | 44 | 1032.8 |
| 20260501214514 | 14 | 157 | 4.8 | 6.4 | 0.00 | 0.00 | 0.00 | 44 | 1032.9 |
| 20260501212612 | 15 | 157 | 3.2 | 6.4 | 0.00 | 0.00 | 0.00 | 43 | 1032.7 |
| 20260501211711 | 15 | 157 | 3.2 | 9.7 | 0.00 | 0.00 | 0.00 | 42 | 1032.8 |
| 20260501211613 | 15 | 157 | 3.2 | 4.8 | 0.00 | 0.00 | 0.00 | 42 | 1032.9 |
| 20260501210712 | 15 | 157 | 6.4 | 8.0 | 0.00 | 0.00 | 0.00 | 43 | 1032.9 |
| 20260501205712 | 15 | 157 | 6.4 | 8.0 | 0.00 | 0.00 | 0.00 | 42 | 1032.9 |
| 20260501204713 | 15 | 157 | 8.0 | 9.7 | 0.00 | 0.00 | 0.00 | 42 | 1032.9 |
| 20260501203714 | 15 | 155 | 4.8 | 8.0 | 0.00 | 0.00 | 0.00 | 42 | 1032.9 |
| 20260501202713 | 16 | 157 | 4.8 | 8.0 | 0.00 | 0.00 | 0.00 | 42 | 1032.9 |
| 20260501200713 | 16 | 157 | 4.8 | 9.7 | 0.00 | 0.00 | 0.00 | 41 | 1033.1 |
| 20260501195613 | 16 | 156 | 6.4 | 9.7 | 0.00 | 0.00 | 0.00 | 40 | 1033.0 |
| 20260501194613 | 16 | 157 | 4.8 | 9.7 | 0.00 | 0.00 | 0.00 | 40 | 1032.9 |
| 20260501193711 | 16 | 157 | 4.8 | 8.0 | 0.00 | 0.00 | 0.00 | 40 | 1032.9 |
| 20260501192714 | 17 | 157 | 3.2 | 8.0 | 0.00 | 0.00 | 0.00 | 39 | 1032.9 |
| 20260501191811 | 17 | 157 | 1.6 | 3.2 | 0.00 | 0.00 | 0.00 | 39 | 1032.9 |
| 20260501190810 | 18 | 157 | 0.0 | 0.0 | 0.00 | 0.00 | 0.00 | 37 | 1032.8 |
| 20260501185812 | 18 | 159 | 3.2 | 6.4 | 0.00 | 0.00 | 0.00 | 39 | 1032.7 |
| 20260501184813 | 19 | 157 | 1.6 | 1.6 | 0.00 | 0.00 | 0.00 | 36 | 1032.7 |
| 20260501183811 | 20 | 140 | 3.2 | 6.4 | 0.00 | 0.00 | 0.00 | 33 | 1032.8 |
| 20260501182813 | 20 | 136 | 6.4 | 8.0 | 0.00 | 0.00 | 0.00 | 32 | 1032.8 |
| 20260501180814 | 21 | 135 | 4.8 | 9.7 | 0.00 | 0.00 | 0.00 | 30 | 1032.7 |
| 20260501175814 | 21 | 142 | 4.8 | 9.7 | 0.00 | 0.00 | 0.00 | 29 | 1032.6 |
| 20260501174815 | 22 | 144 | 6.4 | 16.1 | 0.00 | 0.00 | 0.00 | 29 | 1032.7 |
| 20260501172912 | 22 | 134 | 6.4 | 11.3 | 0.00 | 0.00 | 0.00 | 28 | 1032.7 |
| 20260501171914 | 23 | 135 | 8.0 | 12.9 | 0.00 | 0.00 | 0.00 | 27 | 1032.6 |
| 20260501170913 | 23 | 135 | 8.0 | 16.1 | 0.00 | 0.00 | 0.00 | 26 | 1032.6 |
| 20260501170012 | 24 | 135 | 6.4 | 9.7 | 0.00 | 0.00 | 0.00 | 26 | 1032.7 |
| 20260501165011 | 24 | 135 | 9.7 | 16.1 | 0.00 | 0.00 | 0.00 | 26 | 1032.7 |
| 20260501164014 | 24 | 133 | 4.8 | 8.0 | 0.00 | 0.00 | 0.00 | 25 | 1032.8 |